Probability
0 0 0 0 0 0 0 0 0 0 0 0 0 1 2 2 1 1 3 5 9 14 16 11 8 8 11 13 14 13 12 12 12 14 12 9 8 9 11 10 8 7 6 5
0 0 0 0 0 0 0 0 0 0 0 0 0 1 3 3 1 1 2 5 9 16 20 16 12 11 13 15 15 15 15 14 14 14 12 8 8 10 12 13 11 8 8 7
0 0 0 0 0 0 0 0 0 0 0 0 0 1 3 4 2 1 1 3 9 16 23 23 19 17 18 17 16 17 18 17 15 13 11 8 7 8 11 13 12 10 8 7
0 0 0 0 0 0 0 0 0 0 0 0 0 1 4 5 4 2 1 3 8 15 23 27 25 23 21 17 17 19 21 20 16 13 11 10 8 7 8 10 12 11 8 7
0 0 0 0 0 0 0 0 0 0 0 0 0 1 4 6 6 4 4 5 9 15 24 30 29 25 21 17 19 25 28 26 21 17 15 14 11 9 8 9 11 11 10 9
0 0 0 0 0 0 0 0 0 0 0 0 0 1 4 7 7 6 7 8 12 19 27 34 34 29 24 20 23 31 36 34 27 22 21 20 17 14 12 12 12 12 11 12
0 0 0 0 0 0 0 0 0 0 0 0 0 2 5 7 7 7 8 11 17 24 32 37 37 34 29 25 26 34 41 40 32 25 24 24 21 18 16 15 15 13 12 13
0 0 0 0 0 0 0 0 0 0 0 0 1 4 7 7 7 7 10 14 20 27 33 35 36 34 30 25 25 34 43 43 35 29 27 25 22 19 18 18 18 16 14 13
0 0 0 0 0 0 0 0 0 0 0 1 3 6 9 9 8 9 11 14 19 25 30 32 33 32 29 26 29 38 46 46 40 34 30 26 23 21 20 20 19 18 17 16
0 0 0 0 0 0 0 0 0 0 0 1 4 7 10 12 11 11 12 14 17 24 29 31 32 32 32 32 36 43 49 50 44 38 33 29 29 29 27 25 24 24 23 22
0 0 0 0 0 0 0 0 0 0 0 0 2 7 11 13 14 14 15 16 18 23 29 31 31 32 34 37 42 48 52 52 48 42 37 34 35 36 34 31 31 31 29 26
0 0 0 0 0 0 0 0 0 0 0 0 2 6 11 13 16 17 17 19 21 24 28 30 29 30 34 40 45 50 54 54 50 45 40 37 38 38 36 35 35 35 31 27
0 0 0 0 0 0 0 0 0 0 0 0 2 7 11 14 17 19 20 23 26 28 31 33 34 35 40 46 50 52 54 52 49 46 42 40 40 39 37 36 36 34 30 27
0 0 0 0 0 0 0 0 0 0 0 1 4 8 13 16 18 21 24 28 31 34 39 44 47 50 53 58 58 54 52 50 49 49 46 43 42 40 38 37 34 30 27 26
0 0 0 0 0 0 0 0 0 0 0 2 6 11 16 20 21 23 26 31 35 39 44 51 57 62 66 69 66 59 53 52 53 53 50 46 44 42 42 40 36 29 24 23
0 0 0 0 0 0 0 0 0 0 1 3 7 15 21 23 23 24 26 30 34 39 45 51 58 63 69 71 69 63 56 54 54 54 53 52 50 48 46 43 37 31 26 26
1 2 1 0 0 0 0 1 2 2 4 6 10 16 21 22 23 24 26 30 34 39 45 50 54 60 65 67 66 63 58 53 52 53 55 57 55 52 47 42 37 34 33 34
3 5 3 0 0 1 2 4 4 6 9 11 14 17 18 19 21 24 28 32 35 40 47 51 53 57 61 62 62 60 56 53 51 52 54 56 55 52 47 43 39 39 40 40
5 7 4 0 1 3 5 7 7 8 12 16 19 18 17 18 19 25 31 35 35 38 47 52 52 53 57 59 58 57 54 51 51 52 52 52 52 52 50 47 44 44 43 40
5 8 5 1 3 5 7 8 8 9 13 19 21 20 19 20 23 31 38 40 38 38 45 51 51 54 57 58 58 56 53 50 49 49 49 48 49 52 52 50 48 46 44 41
5 7 6 4 4 6 8 9 10 15 20 23 23 22 23 27 33 39 44 46 44 44 47 50 53 57 59 59 59 58 56 52 49 46 45 45 47 48 49 50 49 48 46 44
7 7 8 8 10 13 15 16 19 26 29 27 27 28 31 37 40 43 46 47 47 49 49 51 55 58 58 57 58 58 57 54 50 46 44 44 44 43 44 46 47 47 45 45
8 9 10 14 18 21 21 23 27 30 32 30 30 33 37 40 40 42 46 47 46 47 48 49 52 54 53 53 54 55 54 52 51 48 46 45 44 43 42 42 42 42 43 43
10 10 14 18 20 20 19 20 25 27 28 28 29 33 36 36 36 40 45 46 43 43 45 47 48 50 49 47 48 49 48 49 50 49 48 47 45 45 44 41 37 36 38 39
11 12 15 18 18 16 15 17 22 25 26 25 26 30 33 31 32 37 41 42 40 42 44 45 46 47 45 42 42 43 44 46 49 49 46 44 42 43 44 40 32 27 26 27
11 13 15 17 17 17 17 18 22 26 26 24 24 29 31 30 30 34 37 39 40 42 45 44 43 43 42 39 39 42 43 44 48 47 42 38 37 40 42 37 27 19 15 13
Wind_Speed
13 12 11 10 10 10 8 7 3 5 7 7 7 11 13 13 12 12 12 12 12 12 13 12 10 11 11 9 7 5 5 4 2 2 2 2 1 1 2 3 3 2 2 2
13 15 14 12 11 12 10 7 5 5 5 5 3 6 9 11 13 13 13 13 13 14 13 12 12 11 11 9 8 7 6 5 3 2 2 2 2 1 2 3 3 2 2 1
17 13 12 13 13 12 10 8 7 5 4 4 4 5 9 10 10 12 13 13 14 14 15 14 12 11 11 10 9 7 6 5 4 3 2 2 2 1 2 3 2 2 2 2
16 14 13 14 13 12 10 9 8 7 7 5 7 4 6 9 10 11 12 13 14 14 15 14 13 12 11 11 10 7 7 5 4 3 2 3 3 2 2 2 2 2 3 2
14 15 15 14 13 12 11 10 9 9 9 8 8 6 6 10 11 12 11 12 14 15 16 16 15 13 12 12 11 9 7 6 5 4 3 2 2 2 2 2 3 2 3 3
15 14 14 13 12 12 11 10 10 9 9 9 10 8 5 7 9 10 11 11 13 14 15 15 15 13 11 11 11 10 9 7 6 5 4 3 2 2 2 2 3 3 2 2
15 16 15 13 13 12 11 9 7 7 8 9 9 8 4 7 7 9 10 10 11 13 14 15 15 14 12 11 11 11 10 8 7 6 5 4 3 3 2 2 3 3 2 2
14 14 15 13 13 11 11 12 10 9 8 7 6 4 3 4 7 9 11 12 11 12 13 15 15 14 12 12 11 11 11 9 8 6 5 4 4 3 2 2 2 2 2 2
11 11 11 11 11 12 13 12 13 11 11 8 5 3 3 5 5 8 9 11 12 11 12 13 15 15 13 12 11 11 11 9 8 7 6 4 4 3 2 2 2 1 1 2
13 10 10 9 9 13 14 13 8 9 10 9 5 5 4 6 6 7 9 10 10 11 12 12 12 14 13 12 10 10 10 9 7 7 6 6 4 3 2 2 1 1 1 1
15 13 11 11 12 12 13 13 10 8 10 9 6 3 3 6 6 6 6 8 10 10 11 11 11 11 11 11 12 10 10 9 7 6 5 4 4 4 3 2 1 2 2 2
11 10 10 12 11 12 14 13 12 9 8 9 7 3 3 6 5 6 6 7 7 6 9 9 10 10 10 11 11 10 9 9 8 6 5 4 4 3 3 3 2 2 2 2
6 8 9 11 11 12 12 12 13 13 9 8 8 4 2 5 6 5 6 7 6 5 7 8 8 8 7 8 9 9 9 9 9 7 7 5 5 4 3 3 3 2 2 2
5 9 12 12 10 8 12 14 14 13 10 9 9 7 5 4 5 5 7 7 6 5 6 7 7 6 6 6 7 8 8 8 8 8 7 6 5 4 4 3 3 3 2 2
9 11 13 14 15 13 13 14 14 12 11 10 8 6 6 5 5 5 6 7 7 6 4 6 6 6 6 6 6 6 6 6 6 7 7 6 5 4 4 4 3 3 3 3
9 10 12 14 16 16 15 14 14 13 11 10 8 6 3 3 4 5 6 6 6 6 4 4 6 7 6 6 6 6 6 6 5 6 6 6 5 5 4 4 4 3 2 2
9 9 12 12 14 15 15 12 10 10 8 7 8 4 3 4 5 4 5 6 5 5 5 4 5 6 5 5 6 6 5 6 5 5 5 6 5 5 4 4 4 4 3 3
9 8 8 11 12 16 8 7 7 7 6 4 3 4 4 4 5 5 4 4 5 4 4 4 5 6 6 6 5 5 6 6 6 5 5 5 4 4 4 3 3 3 3 3
10 8 9 10 12 13 8 5 5 6 5 2 1 2 4 5 5 6 4 4 4 4 4 4 5 6 5 5 5 5 6 6 5 5 4 5 4 4 4 3 3 3 3 3
11 8 9 10 11 10 6 4 4 4 4 1 2 2 3 5 2 3 4 4 4 4 3 4 4 5 6 5 5 5 6 6 5 4 4 4 4 3 3 3 3 2 2 3
11 11 12 12 11 7 5 4 4 5 1 3 1 1 2 3 3 4 5 4 3 4 4 4 5 5 5 5 4 4 4 5 4 4 4 3 3 3 3 3 2 2 2 3
8 9 10 10 10 6 5 3 3 3 4 3 3 3 4 6 6 6 5 4 4 3 3 4 4 4 4 4 4 4 3 4 4 4 4 3 3 3 3 2 2 3 3 4
6 4 4 4 2 3 5 5 4 4 4 4 3 4 5 5 5 5 5 4 3 2 2 3 4 4 4 3 3 4 3 3 4 4 4 3 3 2 2 3 4 4 4 4
4 3 3 2 1 2 4 5 5 4 4 4 3 3 4 4 5 5 4 4 2 1 2 3 3 3 3 3 3 3 3 3 3 3 3 3 3 3 3 3 4 4 3 4
5 4 3 3 1 1 4 4 4 4 3 3 3 2 3 3 4 4 4 3 2 1 1 1 2 3 3 3 3 3 3 3 3 3 3 3 4 3 2 3 3 3 2 3
6 4 4 3 2 0 1 3 3 3 3 2 2 3 3 3 4 4 4 2 2 2 3 3 3 3 3 3 3 3 3 3 3 3 3 3 3 3 3 3 2 3 3 4
Wind_Direction
222 230 235 234 228 236 239 247 227 204 216 219 178 157 166 172 178 176 174 168 170 168 162 160 160 151 149 148 151 149 145 141 148 144 148 139 144 138 103 111 111 122 112 102
225 229 233 236 241 245 238 241 239 221 205 233 187 161 172 179 189 183 178 174 175 168 163 162 165 160 158 156 157 156 155 158 169 151 158 160 152 150 113 94 106 106 96 103
230 230 232 234 237 247 248 249 245 245 239 244 241 203 177 190 199 186 180 178 178 174 167 166 169 165 163 163 166 166 162 160 173 164 173 150 122 119 106 115 129 122 119 112
236 237 236 236 239 246 252 253 251 247 247 237 230 225 188 188 196 191 187 182 179 174 169 168 169 169 168 169 167 159 156 160 167 169 183 172 162 158 145 144 139 151 145 134
235 236 238 240 242 244 252 260 266 263 260 259 244 240 184 188 200 189 188 188 181 175 173 171 172 171 173 173 167 163 156 161 166 175 178 183 167 165 152 149 143 160 154 145
248 241 241 243 247 251 256 261 268 269 263 256 256 255 190 193 205 186 185 188 180 174 173 169 168 165 172 172 167 162 158 164 168 176 176 179 190 177 155 153 157 172 162 159
239 241 237 236 240 239 242 246 249 248 245 248 246 242 188 178 187 177 175 181 181 170 169 167 166 166 170 171 169 162 158 166 174 179 175 176 191 197 176 184 179 183 166 163
232 232 229 225 233 241 235 238 243 250 251 251 247 246 162 157 166 166 164 171 179 170 171 169 168 167 171 174 170 162 160 168 177 179 176 177 186 200 190 201 202 181 178 160
247 238 227 227 229 240 240 238 245 257 267 266 236 211 191 162 167 159 153 156 164 166 165 165 165 167 171 174 170 165 160 169 178 179 172 177 175 192 197 191 204 192 166 163
257 255 232 226 231 233 246 249 249 253 260 264 251 240 219 178 171 157 148 149 159 161 162 163 165 167 168 169 164 160 158 166 171 172 178 174 174 181 174 182 189 155 134 128
247 256 244 219 224 231 232 243 248 256 265 268 252 235 206 194 167 151 142 144 153 158 160 160 161 160 162 165 164 164 159 163 170 171 173 167 168 179 171 181 184 144 139 144
239 254 258 239 223 234 239 239 242 247 257 272 276 256 157 184 142 138 133 124 122 140 149 150 152 154 160 161 161 159 162 166 167 164 163 165 166 165 169 174 171 148 152 157
245 254 256 243 223 217 235 239 245 247 248 254 261 252 188 137 121 128 129 123 121 136 140 141 143 146 150 152 153 155 163 166 166 163 165 168 169 163 162 160 150 144 149 155
246 248 255 258 258 232 234 240 242 247 248 251 243 223 213 162 147 143 127 125 131 129 133 135 133 132 134 135 136 147 158 158 160 161 164 164 168 167 160 150 149 159 168 172
241 243 251 262 267 264 245 243 242 240 249 261 262 241 193 167 160 145 134 134 132 127 131 133 132 128 132 131 136 143 148 150 156 157 161 162 166 161 157 157 160 165 176 180
229 253 258 260 263 261 256 246 247 245 240 240 243 258 190 147 134 134 137 134 129 134 142 140 134 135 138 138 142 147 151 150 152 157 160 159 163 162 162 165 163 163 167 172
240 246 256 256 258 266 254 247 242 248 248 240 242 226 181 158 141 141 141 134 133 139 140 137 138 140 140 142 141 146 149 149 150 156 157 157 162 163 166 176 168 176 178 183
237 247 253 256 256 253 258 268 253 248 263 253 211 162 155 134 112 105 105 113 116 120 124 134 144 140 142 144 146 147 152 150 154 160 162 159 165 168 166 174 176 186 188 190
231 232 244 251 250 253 254 267 278 260 247 250 186 144 110 110 108 105 96 93 95 98 105 121 132 140 136 138 140 147 150 148 158 159 159 159 162 164 166 171 182 188 193 197
228 221 236 245 253 255 260 278 290 278 251 65 101 130 153 144 166 137 100 84 85 90 99 111 116 122 124 127 136 143 150 152 157 153 150 150 154 164 174 177 182 191 198 210
218 218 229 243 252 260 306 330 301 252 324 34 73 96 71 87 62 97 98 79 76 84 96 102 112 118 119 123 133 140 146 150 145 141 139 145 146 163 178 166 170 189 211 220
242 231 228 241 248 248 346 334 337 20 50 47 53 59 75 86 97 105 103 98 94 88 96 113 105 108 114 122 132 136 140 135 135 142 147 156 163 188 178 167 191 204 215 221
246 260 259 261 246 50 26 36 37 39 48 54 70 72 96 106 108 108 111 105 95 97 108 115 113 111 116 127 136 140 138 143 148 150 158 169 179 191 182 193 211 220 221 226
258 291 269 275 118 66 39 32 35 41 45 43 63 83 104 109 113 114 109 104 100 93 122 128 127 126 127 136 142 138 139 145 151 157 169 180 191 204 198 211 221 222 226 230
280 276 266 262 258 56 46 26 25 25 29 41 41 68 99 109 118 126 120 117 113 100 100 116 127 132 138 138 135 139 139 141 156 169 180 199 215 209 205 221 233 237 231 230
269 266 258 253 245 226 60 29 41 31 17 8 42 78 92 109 109 111 106 105 116 126 117 119 121 127 132 139 138 137 147 161 176 196 205 219 225 209 211 220 220 224 228 221